{"data":{"norad_id":65253,"epoch":"2026-09-20T14:17:58.379712Z","epoch_age_seconds":109192,"freshness":"FRESH","line1":"1 65253U 25179U   26263.59581458  .00018029  00000+0  55909-3 0  9999","line2":"2 65253  97.2827 302.8571 0000364 358.7985   1.3257 15.33464745 61324","mean_motion":15.33464745,"eccentricity":3.64e-5,"inclination_deg":97.2827,"raan_deg":302.8571,"arg_perigee_deg":358.7985,"mean_anomaly_deg":1.3257,"bstar":0.00055909,"rev_number":6132,"period_min":93.904995513933,"perigee_km":465.23532006031,"apogee_km":465.73353570026,"semimajor_km":6843.6214278803,"source":"CELESTRAK","updated_at":"2026-09-21T09:00:35.561543Z"}}